Back to catalog

ATLAS 5 CENTAUR DEB

AliveHEO
NORAD 44849·DEBRIS·🇺🇸 United States

Launched Sep 17, 2014 from Cape Canaveral Space Force Station

Loading…

Next Passes (next 24 hours)

TLE

FreshSource: Space-Track

Epoch: Sep 10, 2026, 05:39 UTC

1 44849U 14055CH  26253.23542167 -.00000059  00000-0  00000-0 0  9997
2 44849  21.3391  77.0361 5058387 284.4748  26.3076  1.95521549 50669

Track ATLAS 5 CENTAUR DEB in real time with AllMySat

Download on the App Store